Sand Point, AK

3:43 PM AKST on January 18, 2017 (GMT -0900)
Sand Point

Weather History for PASD - October, 2012

Change the Weather History Date:

Wednesday, October 3, 2012

  Actual Average Record
Temperature  
Mean Temperature 48 °F -  
Max Temperature 51 °F 46 °F 55 °F (2015)
Min Temperature 46 °F 41 °F 33 °F (1985)
Degree Days  
Heating Degree Days 16    
Moisture  
Dew Point 48 °F    
Average Humidity 96    
Maximum Humidity 100    
Minimum Humidity 93    
Precipitation  
Precipitation 0.00 in - - ()
Sea Level Pressure  
Sea Level Pressure 29.56 in    
Wind  
Wind Speed 12 mph (SE)    
Max Wind Speed 38 mph    
Max Gust Speed 46 mph    
Visibility 5 miles    
Events      
Averages and records for this station are not official NWS values.
T = Trace of Precipitation, MM = Missing Value Source: NWS Daily Summary

Daily Weather History Graph

Daily Weather History Graph

Search for Another Location

Airport or City:

Trip Planner

Search our weather history database for the weather conditions in past years. The results will help you decide how hot, cold, wet, or windy it might be!

Date:

Astronomy

Oct. 03, 2012 Rise Set
Actual Time 8:50 AM AKDT 8:10 PM AKDT
Civil Twilight 8:13 AM AKDT 8:46 PM AKDT
Nautical Twilight 7:31 AM AKDT 9:29 PM AKDT
Astronomical Twilight 6:47 AM AKDT 10:12 PM AKDT
Moon 9:25 PM AKDT (10/3) 1:07 PM AKDT (10/3)
Length of Visible Light 12h 33m
Length of Day
11h 20m
Waning Gibbous, 88% of the Moon is Illuminated
Oct 3
Waning Gibbous
Oct 7
Last Quarter
Oct 15
New
Oct 21
First Quarter
Oct 29
Full

Hourly Weather History & Observations

Time (AKDT) Temp. Windchill Dew Point Humidity Pressure Visibility Wind Dir Wind Speed Gust Speed Precip Events Conditions
12:16 AM 46.4 °F 45.2 °F 46.4 °F 100% 29.90 in 3.0 mi ENE 3.5 mph - N/A   Overcast
12:36 AM 46.4 °F - 46.4 °F 100% 29.91 in 7.0 mi Calm Calm - N/A   Overcast
12:56 AM 48.2 °F - 48.2 °F 100% 29.91 in 2.5 mi SSE 5.8 mph - N/A   Overcast
1:16 AM 48.2 °F - 48.2 °F 100% 29.90 in 9.0 mi SE 3.5 mph - N/A   Overcast
1:36 AM 48.2 °F - 48.2 °F 100% 29.89 in 10.0 mi SSE 5.8 mph - N/A   Overcast
1:56 AM 48.2 °F - 48.2 °F 100% 29.88 in 10.0 mi Calm Calm - N/A   Overcast
2:16 AM 48.2 °F - 46.4 °F 93% 29.87 in 10.0 mi Calm Calm - N/A   Overcast
2:36 AM 48.2 °F - 46.4 °F 93% 29.86 in 10.0 mi East 4.6 mph - N/A   Overcast
2:56 AM 48.2 °F - 46.4 °F 93% 29.85 in 10.0 mi SE 3.5 mph - N/A   Overcast
3:16 AM 48.2 °F - 46.4 °F 93% 29.84 in 10.0 mi ESE 3.5 mph - N/A   Overcast
3:36 AM 48.2 °F - 46.4 °F 93% 29.82 in 10.0 mi ENE 6.9 mph - N/A   Overcast
3:56 AM 48.2 °F - 46.4 °F 93% 29.81 in 10.0 mi East 4.6 mph - N/A   Overcast
4:16 AM 48.2 °F - 46.4 °F 93% 29.81 in 10.0 mi East 5.8 mph - N/A   Overcast
4:36 AM 48.2 °F - 46.4 °F 93% 29.80 in 10.0 mi East 5.8 mph - N/A   Overcast
4:56 AM 48.2 °F - 46.4 °F 93% 29.77 in 8.0 mi NE 6.9 mph - N/A   Overcast
5:16 AM 48.2 °F - 46.4 °F 93% 29.76 in 9.0 mi ENE 10.4 mph 16.1 mph N/A   Overcast
5:36 AM 48.2 °F - 46.4 °F 93% 29.73 in 8.0 mi NE 10.4 mph 18.4 mph N/A   Overcast
5:56 AM 48.2 °F - 46.4 °F 93% 29.71 in 10.0 mi NE 8.1 mph - N/A   Overcast
6:16 AM 48.2 °F - 46.4 °F 93% 29.70 in 9.0 mi ENE 6.9 mph 18.4 mph N/A   Overcast
6:36 AM 48.2 °F - 46.4 °F 93% 29.68 in 10.0 mi North 6.9 mph - N/A   Overcast
6:56 AM 48.2 °F - 46.4 °F 93% 29.67 in 10.0 mi NE 9.2 mph - N/A   Overcast
7:16 AM 48.2 °F - 46.4 °F 93% 29.65 in 9.0 mi ENE 5.8 mph - N/A   Overcast
7:36 AM 48.2 °F - 46.4 °F 93% 29.63 in 6.0 mi NNE 8.1 mph 18.4 mph N/A   Overcast
7:56 AM 48.2 °F - 46.4 °F 93% 29.61 in 7.0 mi ENE 10.4 mph 21.9 mph N/A   Overcast
8:16 AM 48.2 °F - 46.4 °F 93% 29.60 in 7.0 mi NE 10.4 mph 23.0 mph N/A   Overcast
8:36 AM 48.2 °F - 46.4 °F 93% 29.59 in 7.0 mi NE 11.5 mph 19.6 mph N/A   Overcast
8:56 AM 48.2 °F - 48.2 °F 100% 29.58 in 6.0 mi NE 11.5 mph 19.6 mph N/A   Overcast
9:16 AM 48.2 °F - 48.2 °F 100% 29.57 in 4.0 mi NE 11.5 mph 18.4 mph N/A   Overcast
9:36 AM 48.2 °F - 48.2 °F 100% 29.56 in 3.0 mi NE 9.2 mph 17.3 mph N/A   Overcast
9:56 AM 48.2 °F - 46.4 °F 93% 29.55 in 4.0 mi East 5.8 mph - N/A   Overcast
10:16 AM 50.0 °F - 48.2 °F 94% 29.53 in 4.0 mi ENE 3.5 mph - N/A   Overcast
10:36 AM 50.0 °F - 50.0 °F 100% 29.52 in 4.0 mi East 5.8 mph - N/A   Overcast
10:56 AM 51.8 °F - 51.8 °F 100% 29.50 in 3.0 mi SE 5.8 mph - N/A   Overcast
11:16 AM 51.8 °F - 51.8 °F 100% 29.50 in 2.0 mi SSE 15.0 mph 18.4 mph N/A   Overcast
11:36 AM 51.8 °F - 51.8 °F 100% 29.49 in 2.0 mi SE 17.3 mph 24.2 mph N/A   Overcast
11:56 AM 51.8 °F - 51.8 °F 100% 29.47 in 2.0 mi SE 18.4 mph 28.8 mph N/A   Overcast
12:16 PM 51.8 °F - 51.8 °F 100% 29.46 in 3.0 mi SSE 21.9 mph 28.8 mph N/A   Overcast
12:36 PM 51.8 °F - 51.8 °F 100% 29.45 in 4.0 mi SSE 28.8 mph 36.8 mph N/A   Overcast
12:56 PM 51.8 °F - 51.8 °F 100% 29.45 in 5.0 mi SSE 24.2 mph 34.5 mph N/A   Overcast
1:16 PM 50.0 °F - 48.2 °F 94% 29.45 in 2.0 mi SSE 21.9 mph 29.9 mph N/A   Overcast
1:36 PM 50.0 °F - 48.2 °F 94% 29.45 in 2.0 mi SSE 26.5 mph 31.1 mph N/A   Overcast
1:56 PM 50.0 °F - 48.2 °F 94% 29.44 in 2.0 mi SSE 24.2 mph 32.2 mph N/A   Overcast
2:16 PM 50.0 °F - 48.2 °F 94% 29.43 in 2.5 mi SSE 27.6 mph 33.4 mph N/A   Overcast
2:36 PM 50.0 °F - 48.2 °F 94% 29.42 in 5.0 mi SSE 28.8 mph 32.2 mph N/A   Overcast
2:56 PM 50.0 °F - 48.2 °F 94% 29.43 in 2.0 mi SSE 26.5 mph 34.5 mph N/A   Overcast
3:16 PM 50.0 °F - 48.2 °F 94% 29.42 in 1.2 mi SSE 24.2 mph 34.5 mph N/A   Overcast
3:36 PM 50.0 °F - 48.2 °F 94% 29.42 in 1.0 mi SSE 23.0 mph 29.9 mph N/A   Overcast
3:56 PM 50.0 °F - 48.2 °F 94% 29.42 in 1.0 mi SSE 23.0 mph 28.8 mph N/A   Overcast
4:16 PM 50.0 °F - 48.2 °F 94% 29.41 in 1.0 mi SSE 29.9 mph 34.5 mph N/A   Overcast
4:36 PM 50.0 °F - 48.2 °F 94% 29.40 in 1.0 mi SSE 29.9 mph 35.7 mph N/A   Overcast
4:56 PM 50.0 °F - 48.2 °F 94% 29.39 in 1.0 mi South 29.9 mph 35.7 mph N/A   Overcast
5:16 PM 50.0 °F - 48.2 °F 94% 29.39 in 1.5 mi SSE 31.1 mph 38.0 mph N/A   Overcast
5:36 PM 50.0 °F - 48.2 °F 94% 29.38 in 1.5 mi South 29.9 mph 38.0 mph N/A   Overcast
5:56 PM 50.0 °F - 48.2 °F 94% 29.39 in 2.0 mi South 27.6 mph 36.8 mph N/A   Overcast
6:16 PM 50.0 °F - 48.2 °F 94% 29.40 in 2.0 mi SSE 26.5 mph 32.2 mph N/A   Overcast
6:36 PM 50.0 °F - 50.0 °F 100% 29.40 in 3.0 mi SSE 28.8 mph 35.7 mph N/A   Overcast
6:56 PM 50.0 °F - 48.2 °F 94% 29.39 in 10.0 mi South 31.1 mph 36.8 mph N/A   Overcast
7:16 PM 48.2 °F - 46.4 °F 93% 29.40 in 5.0 mi South 25.3 mph 33.4 mph N/A   Overcast
7:36 PM 48.2 °F - 46.4 °F 93% 29.41 in 2.5 mi South 26.5 mph 31.1 mph N/A   Overcast
7:56 PM 48.2 °F - 48.2 °F 100% 29.41 in 3.0 mi South 28.8 mph 36.8 mph N/A   Overcast
8:16 PM 48.2 °F - 48.2 °F 100% 29.42 in 7.0 mi SSE 21.9 mph 33.4 mph N/A   Overcast
8:36 PM 48.2 °F - 48.2 °F 100% 29.41 in 4.0 mi SSE 29.9 mph 36.8 mph N/A   Overcast
8:56 PM 48.2 °F - 48.2 °F 100% 29.41 in 5.0 mi South 28.8 mph 36.8 mph N/A   Overcast
9:16 PM 48.2 °F - 48.2 °F 100% 29.41 in 5.0 mi SSE 26.5 mph 33.4 mph N/A   Overcast
9:36 PM 48.2 °F - 48.2 °F 100% 29.40 in 2.5 mi South 34.5 mph 43.7 mph N/A   Overcast
9:56 PM 48.2 °F - 48.2 °F 100% 29.41 in 4.0 mi South 28.8 mph 38.0 mph N/A   Overcast
10:16 PM 48.2 °F - 48.2 °F 100% 29.42 in 5.0 mi South 27.6 mph 36.8 mph N/A   Overcast
10:36 PM 48.2 °F - 48.2 °F 100% 29.42 in 4.0 mi South 31.1 mph 39.1 mph N/A   Overcast
10:56 PM 48.2 °F - 48.2 °F 100% 29.41 in 6.0 mi South 38.0 mph 46.0 mph N/A   Overcast
11:16 PM 48.2 °F - 46.4 °F 93% 29.42 in 9.0 mi South 29.9 mph 41.4 mph N/A   Overcast
11:36 PM 48.2 °F - 46.4 °F 93% 29.42 in 10.0 mi South 31.1 mph 40.3 mph N/A   Overcast
11:56 PM 48.2 °F - 46.4 °F 93% 29.43 in 3.0 mi South 32.2 mph 40.3 mph N/A   Overcast